KD4UYR Weather Reports


time (UTC)temp
C
wind
direction
speed
KPH
gust
KPH
rain 1hr
cm
rain 24hr
cm
rain mn
cm
humidity
%
barometer
mb
20260504042004 8 306 3.2 4.8 0.00 2.59 0.00 65 1018.6
20260504041803 8 315 3.2 3.2 0.00 2.59 0.00 65 1018.7
20260504041404 8 315 3.2 3.2 0.00 2.59 0.00 65 1018.7
20260504041204 8 307 3.2 4.8 0.00 2.59 0.00 65 1018.7
20260504041004 8 299 3.2 4.8 0.00 2.59 0.00 64 1018.8
20260504040804 8 300 3.2 4.8 0.00 2.59 0.00 64 1018.6
20260504040604 8 300 3.2 4.8 0.00 2.59 0.00 64 1018.7
20260504040403 8 300 3.2 4.8 0.00 2.59 0.00 65 1018.7
20260504040204 8 307 3.2 4.8 0.00 2.59 0.00 65 1018.8
20260504040004 8 315 3.2 4.8 0.00 2.59 0.00 65 1018.8
20260504035804 8 315 3.2 4.8 0.00 2.59 0.00 65 1018.9
20260504035603 8 314 3.2 4.8 0.00 2.59 0.00 65 1018.6
20260504035404 8 314 3.2 4.8 0.00 2.59 0.00 65 1018.6
20260504035204 8 314 3.2 4.8 0.00 2.59 0.00 65 1018.6
20260504034803 8 314 3.2 4.8 0.00 2.59 0.00 64 1018.4
20260504034404 8 306 3.2 4.8 0.00 2.59 0.00 64 1018.3
20260504034003 8 307 3.2 4.8 0.00 2.59 0.00 64 1018.4
20260504033804 8 308 4.8 4.8 0.00 2.59 0.00 63 1018.4
20260504033604 8 310 4.8 4.8 0.00 2.59 0.00 64 1018.4
20260504033404 8 314 3.2 4.8 0.00 2.59 0.00 64 1018.4
20260504033204 8 314 3.2 4.8 0.00 2.59 0.00 65 1018.4
20260504032804 8 315 3.2 4.8 0.00 2.59 0.00 64 1018.4
20260504032604 8 315 3.2 3.2 0.00 2.59 0.00 64 1018.4
20260504032404 8 315 3.2 3.2 0.00 2.59 0.00 64 1018.4
20260504032004 8 314 3.2 4.8 0.00 2.59 0.00 64 1018.3
20260504031804 8 314 3.2 4.8 0.00 2.59 0.00 64 1018.3
20260504031404 8 314 4.8 4.8 0.00 2.59 0.00 64 1018.0
20260504031203 8 314 4.8 4.8 0.00 2.59 0.00 64 1018.1
20260504031004 8 314 4.8 4.8 0.00 2.59 0.00 64 1018.2
20260504030604 8 314 3.2 4.8 0.00 2.59 0.00 65 1018.1
20260504030404 8 314 3.2 4.8 0.00 2.59 0.00 65 1018.3
20260504030004 8 314 3.2 4.8 0.00 2.59 0.00 64 1018.4
20260504025804 8 314 3.2 4.8 0.00 2.59 0.00 63 1018.3
20260504025404 8 314 3.2 4.8 0.00 2.59 0.00 63 1018.2
20260504025204 8 314 4.8 4.8 0.00 2.59 0.00 63 1018.2
20260504025004 8 314 4.8 4.8 0.00 2.59 0.00 62 1018.1
20260504024804 8 314 3.2 4.8 0.00 2.59 0.00 62 1018.3
20260504024604 8 314 3.2 4.8 0.00 2.59 0.00 62 1018.4
20260504024404 8 314 3.2 4.8 0.00 2.59 0.00 62 1018.4
20260504024004 8 298 3.2 4.8 0.00 2.59 0.00 62 1018.4
20260504023604 8 299 3.2 4.8 0.00 2.59 0.00 62 1018.4
20260504023404 8 299 3.2 4.8 0.00 2.59 0.00 62 1018.4
20260504023203 8 310 3.2 3.2 0.00 2.59 0.00 62 1018.2
20260504023004 8 315 3.2 4.8 0.00 2.59 0.00 62 1018.1
20260504022804 8 314 3.2 4.8 0.00 2.59 0.00 62 1018.3
20260504022604 8 314 3.2 4.8 0.00 2.59 0.00 62 1018.2
20260504022404 8 314 3.2 4.8 0.00 2.59 0.00 62 1018.3
20260504022204 8 314 3.2 4.8 0.00 2.59 0.00 62 1018.4
20260504021604 8 315 3.2 3.2 0.00 2.59 0.00 62 1018.5
20260504021403 8 314 3.2 3.2 0.00 2.59 0.00 62 1018.4
20260504021203 8 317 1.6 3.2 0.00 2.59 0.00 62 1018.4
20260504021004 8 317 1.6 3.2 0.00 2.59 0.00 62 1018.2
20260504020804 8 307 3.2 4.8 0.00 2.59 0.00 62 1018.3
20260504020403 8 299 3.2 4.8 0.00 2.59 0.00 62 1018.3
20260504020203 8 300 3.2 4.8 0.00 2.59 0.00 62 1018.4
20260504020004 8 301 3.2 4.8 0.00 2.59 0.00 62 1018.2
20260504015804 8 306 4.8 4.8 0.00 2.59 0.00 62 1018.3
20260504015403 8 316 4.8 4.8 0.00 2.59 0.00 62 1018.3
20260504015203 8 318 3.2 4.8 0.00 2.59 0.00 63 1018.2
20260504015004 8 319 3.2 4.8 0.00 2.59 0.00 63 1018.1
20260504014804 8 319 3.2 4.8 0.00 2.59 0.00 63 1018.2
20260504014604 8 321 3.2 4.8 0.00 2.59 0.00 63 1018.1
20260504014403 8 326 3.2 4.8 0.00 2.59 0.00 63 1018.0
20260504014203 9 330 3.2 4.8 0.00 2.59 0.00 63 1018.1
20260504014004 9 331 3.2 4.8 0.00 2.59 0.00 63 1018.1
20260504013603 9 327 3.2 4.8 0.00 2.59 0.00 62 1018.1
20260504013404 9 329 3.2 4.8 0.00 2.59 0.00 62 1018.1
20260504013203 9 330 3.2 4.8 0.00 2.59 0.00 62 1018.1
20260504013004 9 332 3.2 4.8 0.00 2.59 0.00 62 1018.1
20260504012804 9 339 3.2 4.8 0.00 2.59 0.00 62 1018.0
20260504012604 9 346 1.6 4.8 0.00 2.59 0.00 62 1017.9
20260504012404 9 314 1.6 4.8 0.00 2.59 0.00 62 1018.0
20260504012203 9 278 1.6 3.2 0.00 2.59 0.00 61 1018.1
20260504012004 9 279 1.6 3.2 0.00 2.59 0.00 61 1017.9
20260504011803 9 274 1.6 3.2 0.00 2.59 0.00 61 1018.0
20260504011603 9 285 3.2 3.2 0.00 2.59 0.00 61 1018.0
20260504011404 10 294 1.6 4.8 0.00 2.59 0.00 61 1018.0
20260504011204 10 310 1.6 4.8 0.00 2.59 0.00 61 1017.9
20260504011004 10 329 1.6 4.8 0.00 2.59 0.00 60 1017.8
20260504010804 10 341 3.2 4.8 0.00 2.59 0.00 60 1017.8
20260504010404 10 338 3.2 8.0 0.00 2.59 0.00 60 1018.0
20260504010204 10 321 3.2 8.0 0.00 2.59 0.00 60 1018.0
20260504010004 10 312 3.2 8.0 0.00 2.59 0.00 60 1018.0
20260504005404 10 324 3.2 8.0 0.00 2.59 0.00 60 1017.8
20260504005204 10 343 3.2 8.0 0.00 2.59 0.00 60 1017.8
20260504004803 10 323 3.2 8.0 0.00 2.59 0.00 60 1017.9
20260504004404 10 327 3.2 8.0 0.00 2.59 0.00 59 1017.8
20260504004004 10 327 3.2 8.0 0.00 2.59 0.00 58 1017.7
20260504003804 10 330 3.2 8.0 0.00 2.59 0.00 58 1017.8
20260504003604 10 327 3.2 4.8 0.00 2.59 0.00 58 1017.8
20260504003204 11 314 1.6 3.2 0.00 2.59 0.00 56 1017.7
20260504003004 11 315 3.2 4.8 0.00 2.59 0.00 56 1017.5
20260504002804 11 314 3.2 4.8 0.00 2.59 0.00 56 1017.7
20260504002604 11 316 3.2 4.8 0.00 2.59 0.00 56 1017.6
20260504002404 11 320 3.2 4.8 0.00 2.59 0.00 52 1017.6
20260504002203 11 326 4.8 8.0 0.00 2.59 0.00 52 1017.8
20260504002004 11 326 4.8 8.0 0.00 2.59 0.00 52 1017.6
20260504001804 11 327 4.8 8.0 0.00 2.59 0.00 51 1017.6
20260504001404 12 327 4.8 8.0 0.00 2.59 0.00 51 1017.6
20260504001204 12 324 3.2 8.0 0.00 2.59 0.00 51 1017.6
20260504001004 12 327 1.6 8.0 0.00 2.59 0.00 50 1017.7
20260504000803 12 337 1.6 4.8 0.00 2.59 0.00 49 1017.6
20260504000603 12 135 0.0 3.2 0.00 2.59 0.00 47 1017.6
20260504000404 12 65 1.6 3.2 0.00 2.59 0.00 46 1017.5
20260504000004 12 35 1.6 3.2 0.00 2.59 0.00 44 1017.7
20260503235603 12 353 1.6 4.8 0.00 2.59 0.00 43 1017.5
20260503235204 13 326 1.6 4.8 0.00 2.59 0.00 43 1017.8
20260503235004 13 292 3.2 4.8 0.00 2.59 0.00 42 1017.7
20260503234804 13 280 3.2 4.8 0.00 2.59 0.00 42 1017.6
20260503234604 13 258 3.2 4.8 0.00 2.59 0.00 42 1017.5
20260503234404 13 228 3.2 4.8 0.00 2.59 0.00 42 1017.6
20260503234204 13 214 3.2 4.8 0.00 2.59 0.00 41 1017.7
20260503233603 13 181 1.6 3.2 0.00 2.59 0.00 41 1017.6
20260503233204 14 115 1.6 3.2 0.00 2.59 0.00 41 1017.6
20260503232804 14 338 1.6 4.8 0.00 2.59 0.00 41 1017.6
20260503232603 14 345 3.2 9.7 0.00 2.59 0.00 41 1017.7
20260503232404 14 336 3.2 9.7 0.00 2.59 0.00 40 1017.7
20260503232203 15 332 4.8 9.7 0.00 2.59 0.00 38 1017.8
20260503232004 15 342 6.4 9.7 0.00 2.59 0.00 37 1017.7
20260503231804 15 347 6.4 9.7 0.00 2.59 0.00 37 1017.6
20260503231604 15 341 6.4 9.7 0.00 2.59 0.00 37 1017.5
20260503231403 15 343 8.0 12.9 0.00 2.59 0.00 36 1017.7
20260503231203 15 5 8.0 12.9 0.00 2.59 0.00 35 1017.8
20260503231004 15 8 6.4 12.9 0.00 2.59 0.00 35 1017.9
20260503230804 15 353 8.0 12.9 0.00 2.59 0.00 34 1017.8
20260503230604 15 2 8.0 12.9 0.00 2.59 0.00 34 1017.8
20260503230204 15 346 8.0 12.9 0.00 2.59 0.00 35 1017.9
20260503230004 15 339 8.0 12.9 0.00 2.59 0.00 35 1017.9
20260503225804 15 355 8.0 14.5 0.00 2.59 0.00 35 1017.9
20260503225204 15 328 8.0 14.5 0.00 2.59 0.00 34 1018.0
20260503225005 15 314 8.0 14.5 0.00 2.59 0.00 33 1017.8
20260503224804 15 303 6.4 14.5 0.00 2.59 0.00 33 1018.0
20260503224603 15 302 4.8 11.3 0.00 2.59 0.00 32 1017.9
20260503224404 15 312 4.8 9.7 0.00 2.59 0.00 31 1017.9
20260503224204 16 333 6.4 9.7 0.00 2.59 0.00 32 1017.8
20260503223803 16 347 8.0 16.1 0.00 2.59 0.00 32 1017.9
20260503223604 16 346 9.7 16.1 0.00 2.59 0.00 32 1017.8
20260503223204 16 348 9.7 16.1 0.00 2.59 0.00 32 1017.7
20260503223004 16 355 8.0 16.1 0.00 2.59 0.00 32 1017.9
20260503222604 16 341 6.4 12.9 0.00 2.59 0.00 33 1018.0
20260503222403 16 336 6.4 12.9 0.00 2.59 0.00 32 1017.7
20260503222204 16 327 6.4 12.9 0.00 2.59 0.00 31 1017.9
20260503222005 16 330 8.0 12.9 0.00 2.59 0.00 31 1017.9
20260503221804 16 337 9.7 16.1 0.00 2.59 0.00 31 1017.7
20260503221604 16 342 9.7 16.1 0.00 2.59 0.00 31 1017.6
20260503221404 16 340 8.0 16.1 0.00 2.59 0.00 31 1017.7
20260503221204 16 353 8.0 16.1 0.00 2.59 0.00 30 1017.7
20260503221004 16 344 8.0 16.1 0.00 2.59 0.00 30 1017.7
20260503220804 16 335 8.0 16.1 0.00 2.59 0.00 30 1017.9
20260503220604 16 327 8.0 12.9 0.00 2.59 0.00 30 1017.8
20260503220404 16 306 8.0 17.7 0.00 2.59 0.00 30 1017.9
20260503220204 16 306 9.7 17.7 0.00 2.59 0.00 28 1017.7
20260503220004 16 309 9.7 17.7 0.00 2.59 0.00 30 1017.8
20260503215803 16 333 9.7 17.7 0.00 2.59 0.00 30 1017.9
20260503215604 16 349 9.7 17.7 0.00 2.59 0.00 30 1018.0
20260503215004 16 23 8.0 14.5 0.00 2.59 0.00 30 1017.9
20260503214604 16 328 9.7 24.1 0.00 2.59 0.00 30 1017.8
20260503214403 16 320 11.3 24.1 0.00 2.59 0.00 30 1018.1
20260503214204 16 313 9.7 24.1 0.00 2.59 0.00 27 1018.0
20260503214004 17 292 11.3 24.1 0.00 2.59 0.00 27 1017.9
20260503213403 17 310 11.3 19.3 0.00 2.59 0.00 27 1017.8
20260503213203 17 320 12.9 19.3 0.00 2.59 0.00 25 1018.0
20260503213004 17 341 12.9 24.1 0.00 2.59 0.00 26 1017.9
20260503212804 17 345 11.3 24.1 0.00 2.59 0.00 26 1018.0
20260503212604 17 341 11.3 24.1 0.00 2.59 0.00 25 1018.2
20260503212203 18 322 11.3 24.1 0.00 2.59 0.00 26 1018.0
20260503212004 18 314 11.3 19.3 0.00 2.59 0.00 25 1018.1
20260503211603 18 311 11.3 19.3 0.00 2.59 0.00 24 1018.0
20260503211404 18 310 11.3 19.3 0.00 2.59 0.00 25 1018.2
20260503211204 18 328 9.7 19.3 0.00 2.59 0.00 25 1018.3
20260503211004 18 324 9.7 17.7 0.00 2.59 0.00 25 1018.2
20260503210804 18 323 9.7 17.7 0.00 2.59 0.00 25 1018.3
20260503210603 18 307 11.3 17.7 0.00 2.59 0.00 23 1018.1
20260503210404 18 322 11.3 17.7 0.00 2.59 0.00 24 1018.3
20260503210204 18 317 12.9 17.7 0.00 2.59 0.00 23 1018.3
20260503210004 18 322 11.3 17.7 0.00 2.59 0.00 24 1018.4
20260503205803 18 334 11.3 16.1 0.00 2.59 0.00 23 1018.4
20260503205604 18 350 11.3 16.1 0.00 2.59 0.00 22 1018.4
20260503205204 19 8 11.3 16.1 0.00 2.59 0.00 22 1018.4
20260503205004 19 8 12.9 16.1 0.00 2.59 0.00 22 1018.5
20260503204804 20 17 11.3 16.1 0.00 2.59 0.00 22 1018.5
20260503204604 20 23 9.7 16.1 0.00 2.59 0.00 22 1018.4
20260503204403 20 31 8.0 16.1 0.00 2.59 0.00 22 1018.4
20260503204203 21 32 6.4 16.1 0.00 2.59 0.00 23 1018.5
20260503204004 21 56 6.4 22.5 0.00 2.59 0.00 21 1018.4
20260503203804 21 347 8.0 22.5 0.00 2.59 0.00 21 1018.6
20260503203603 21 338 9.7 22.5 0.00 2.59 0.00 23 1018.6
20260503203403 21 343 12.9 24.1 0.00 2.59 0.00 23 1018.6
20260503202804 21 336 12.9 27.4 0.00 2.59 0.00 22 1018.9
20260503202604 21 326 12.9 27.4 0.00 2.59 0.00 22 1018.9
20260503202204 22 294 9.7 27.4 0.00 2.59 0.00 22 1018.8
20260503202004 22 295 9.7 16.1 0.00 2.59 0.00 21 1019.0
20260503201803 22 331 9.7 16.1 0.00 2.59 0.00 23 1018.9
20260503201404 22 42 8.0 14.5 0.00 2.59 0.00 25 1019.0
20260503201204 21 38 8.0 14.5 0.00 2.59 0.00 23 1019.0
20260503201004 21 32 9.7 16.1 0.00 2.59 0.00 24 1019.0
20260503200804 21 349 9.7 16.1 0.00 2.59 0.00 25 1019.2
20260503200404 21 311 8.0 16.1 0.00 2.59 0.00 24 1019.1
20260503200203 21 300 8.0 16.1 0.00 2.59 0.00 23 1019.1
20260503200003 20 279 8.0 16.1 0.00 2.59 0.00 23 1019.2
20260503195804 20 268 8.0 16.1 0.00 2.59 0.00 23 1019.1
20260503195604 20 288 9.7 16.1 0.00 2.59 0.00 23 1019.1
20260503195403 20 295 11.3 16.1 0.00 2.59 0.00 22 1019.4
20260503195203 20 302 11.3 16.1 0.00 2.59 0.00 22 1019.2
20260503195005 21 316 11.3 16.1 0.00 2.59 0.00 22 1019.4
20260503194803 21 324 11.3 14.5 0.00 2.59 0.00 21 1019.5
20260503194603 21 321 11.3 14.5 0.00 2.59 0.00 22 1019.3
20260503194404 21 318 9.7 14.5 0.00 2.59 0.00 21 1019.2
20260503194004 21 309 8.0 16.1 0.00 2.59 0.00 22 1019.2
20260503193804 21 304 9.7 16.1 0.00 2.59 0.00 23 1019.3
20260503193604 21 296 9.7 16.1 0.00 2.59 0.00 22 1019.3
20260503193403 21 288 9.7 16.1 0.00 2.59 0.00 21 1019.4
20260503193204 21 291 9.7 16.1 0.00 2.59 0.00 21 1019.3
20260503192804 21 307 9.7 14.5 0.00 2.59 0.00 21 1019.4
20260503192004 22 335 8.0 16.1 0.00 2.59 0.00 21 1019.3
20260503191804 22 329 9.7 16.1 0.00 2.59 0.00 21 1019.2
20260503191604 21 323 9.7 16.1 0.00 2.59 0.00 22 1019.3
20260503191404 21 315 9.7 16.1 0.00 2.59 0.00 21 1019.3
20260503191203 21 312 9.7 14.5 0.00 2.59 0.00 21 1019.2
20260503191004 21 333 9.7 14.5 0.00 2.59 0.00 21 1019.4
20260503190804 21 30 9.7 14.5 0.00 2.59 0.00 21 1019.3
20260503190604 22 58 9.7 22.5 0.00 2.59 0.00 21 1019.3
20260503190404 22 52 9.7 22.5 0.00 2.59 0.00 23 1019.3
20260503190204 22 39 11.3 22.5 0.00 2.59 0.00 23 1019.4
20260503190004 22 9 12.9 22.5 0.00 2.59 0.00 23 1019.2
20260503185804 22 5 12.9 22.5 0.00 2.59 0.00 22 1019.4
20260503185604 22 1 11.3 22.5 0.00 2.59 0.00 23 1019.4
20260503185404 22 14 9.7 22.5 0.00 2.59 0.00 22 1019.5
20260503185204 22 31 11.3 22.5 0.00 2.59 0.00 21 1019.3
20260503185004 22 64 9.7 19.3 0.00 2.59 0.00 23 1019.5
20260503184804 22 44 9.7 19.3 0.00 2.59 0.00 23 1019.3
20260503184203 22 40 11.3 19.3 0.00 2.59 0.00 22 1019.4
20260503184004 22 40 9.7 19.3 0.00 2.59 0.00 23 1019.5
20260503183804 22 46 9.7 16.1 0.00 2.59 0.00 24 1019.3
20260503183603 22 40 11.3 17.7 0.00 2.59 0.00 23 1019.5
20260503183404 21 26 9.7 17.7 0.00 2.59 0.00 23 1019.8
20260503183204 21 8 9.7 17.7 0.00 2.59 0.00 22 1019.7
20260503183004 21 355 9.7 17.7 0.00 2.59 0.00 22 1019.7
20260503182204 21 188 4.8 12.9 0.00 2.59 0.00 24 1019.7
20260503182005 21 256 4.8 12.9 0.00 2.59 0.00 24 1019.5
20260503181804 20 289 6.4 12.9 0.00 2.59 0.00 24 1019.7
20260503181604 20 292 6.4 12.9 0.00 2.59 0.00 24 1019.7
20260503181403 20 306 8.0 12.9 0.00 2.59 0.00 23 1019.8
20260503181204 20 317 8.0 12.9 0.00 2.59 0.00 22 1019.7
20260503181004 21 337 6.4 12.9 0.00 2.59 0.00 23 1019.6
20260503180804 21 352 8.0 12.9 0.00 2.59 0.00 24 1019.7
20260503180603 21 356 8.0 11.3 0.00 2.59 0.00 23 1019.7
20260503180203 20 332 8.0 12.9 0.00 2.59 0.00 23 1019.8
20260503180004 20 318 8.0 14.5 0.00 2.59 0.00 23 1019.8
20260503175804 20 319 9.7 14.5 0.00 2.59 0.00 23 1020.0
20260503175404 21 352 9.7 14.5 0.00 2.59 0.00 23 1019.8
20260503175203 21 42 11.3 16.1 0.00 2.59 0.00 23 1020.0
20260503175004 21 60 11.3 16.1 0.00 2.59 0.00 24 1019.7
20260503174803 21 66 11.3 16.1 1.96 2.59 0.00 24 1019.8
20260503174604 21 85 9.7 16.1 2.59 2.59 0.00 25 1019.6
20260503174203 20 323 8.0 16.1 2.59 2.59 0.00 24 1020.0
20260503174004 20 309 8.0 12.9 2.59 2.59 0.00 23 1020.0
20260503173804 20 309 8.0 12.9 2.59 2.59 0.00 22 1019.9
20260503173404 20 321 8.0 12.9 2.59 2.59 0.00 23 1019.9
20260503173004 20 330 8.0 12.9 2.59 2.59 0.00 23 1020.0
20260503172803 20 343 8.0 12.9 2.59 2.59 0.00 22 1020.2
20260503172604 20 350 9.7 12.9 2.59 2.59 0.00 23 1020.1
20260503172004 20 330 8.0 12.9 2.59 2.59 0.00 24 1020.1
20260503171804 20 325 8.0 12.9 2.59 2.59 0.00 25 1020.1
20260503171604 20 328 8.0 12.9 2.59 2.59 0.00 25 1020.1
20260503171404 20 335 8.0 12.9 2.59 2.59 0.00 23 1020.2
20260503171004 20 315 9.7 14.5 2.59 2.59 0.00 24 1020.2
20260503170803 20 327 9.7 14.5 2.59 2.59 0.00 23 1020.5
20260503170604 20 329 9.7 14.5 2.59 2.59 0.00 25 1020.2
20260503170404 20 328 9.7 16.1 2.59 2.59 0.00 24 1020.5
20260503170203 20 339 11.3 16.1 2.59 2.59 0.00 24 1020.3
20260503160204 16 334 9.7 17.7 0.00 0.00 0.00 31 1021.0
20260503151003 15 45 8.0 12.9 0.00 0.00 0.00 40 1021.3
20260503150804 14 25 6.4 12.9 0.00 0.00 0.00 40 1021.0
20260503150403 13 336 4.8 9.7 0.00 0.00 0.00 40 1021.2
20260503150204 13 308 4.8 9.7 0.00 0.00 0.00 40 1021.0
20260503140204 10 45 8.0 11.3 0.00 0.00 0.00 58 1021.0
20260503131204 7 90 3.2 8.0 0.00 0.00 0.00 72 1021.0
20260503131004 7 81 3.2 8.0 0.00 0.00 0.00 72 1021.0
20260503130803 7 84 3.2 8.0 0.00 0.00 0.00 72 1020.8
20260503130604 7 86 3.2 8.0 0.00 0.00 0.00 72 1020.9
20260503130203 7 88 3.2 8.0 0.00 0.00 0.00 73 1020.9
20260503120204 5 0 0.0 0.0 0.00 0.00 0.00 82 1020.7
20260503110804 5 337 4.8 8.0 0.00 0.00 0.00 81 1019.7
20260503110604 5 337 4.8 8.0 0.00 0.00 0.00 81 1019.6
20260503110403 5 331 4.8 8.0 0.00 0.00 0.00 81 1019.6
20260503110204 5 326 4.8 8.0 0.00 0.00 0.00 81 1019.5
20260503090404 5 324 11.3 14.5 0.00 0.00 0.00 78 1018.8
20260503090204 5 321 11.3 14.5 0.00 0.00 0.00 78 1018.6
20260503081603 6 320 11.3 16.1 0.00 0.00 0.00 75 1018.4
20260503081404 6 321 9.7 12.9 0.00 0.00 0.00 75 1018.4
20260503081204 6 321 9.7 12.9 0.00 0.00 0.00 75 1018.3
20260503081004 6 328 11.3 12.9 0.00 0.00 0.00 75 1018.2
20260503080804 6 326 11.3 14.5 0.00 0.00 0.00 75 1018.4
20260503080603 6 321 11.3 14.5 0.00 0.00 0.00 75 1018.3
20260503080404 6 325 11.3 14.5 0.00 0.00 0.00 75 1018.4
20260503072804 6 330 12.9 16.1 0.00 0.00 0.00 70 1018.1
20260503072403 6 322 12.9 16.1 0.00 0.00 0.00 70 1018.3
20260503072204 6 325 11.3 14.5 0.00 0.00 0.00 70 1018.2
20260503071804 6 322 9.7 14.5 0.00 0.00 0.00 70 1018.1
20260503071603 6 320 9.7 14.5 0.00 0.00 0.00 74 1018.1
20260503071204 6 321 8.0 11.3 0.00 0.00 0.00 70 1018.2
20260503071004 6 329 8.0 11.3 0.00 0.00 0.00 70 1017.9
20260503070804 6 334 8.0 12.9 0.00 0.00 0.00 70 1017.9
20260503070204 6 337 8.0 12.9 0.00 0.00 0.00 70 1017.8
20260503060203 6 353 9.7 14.5 0.00 0.00 0.00 69 1017.8
20260503055004 6 334 9.7 12.9 0.00 0.00 0.00 70 1017.8
20260503054803 6 339 9.7 12.9 0.00 0.00 0.00 70 1017.8
20260503054604 6 334 8.0 12.9 0.00 0.00 0.00 70 1017.8
20260503054403 6 328 8.0 11.3 0.00 0.00 0.00 74 1017.8
20260503054003 6 334 4.8 9.7 0.00 0.00 0.00 73 1017.9
20260503053804 6 326 4.8 9.7 0.00 0.00 0.00 73 1017.9
20260503053603 6 325 4.8 8.0 0.00 0.00 0.00 73 1018.0
20260503053404 6 322 3.2 4.8 0.00 0.00 0.00 73 1018.0
20260503053203 6 322 3.2 4.8 0.00 0.00 0.00 73 1017.9
20260503053004 6 323 3.2 4.8 0.00 0.00 0.00 72 1017.8
20260503052804 6 320 3.2 4.8 0.00 0.00 0.00 68 1017.8
20260503052603 6 314 3.2 4.8 0.00 0.00 0.00 68 1017.7
20260503051804 6 314 1.6 3.2 0.00 0.00 0.00 66 1017.7
20260503051204 7 314 3.2 8.0 0.00 0.00 0.00 65 1017.7
20260503050804 7 323 3.2 8.0 0.00 0.00 0.00 65 1017.7
20260503050604 7 327 4.8 8.0 0.00 0.00 0.00 65 1017.7
20260503050204 7 334 4.8 8.0 0.00 0.00 0.00 64 1017.9
20260503050003 7 332 6.4 8.0 0.00 0.00 0.00 64 1017.6
20260503045804 7 329 6.4 8.0 0.00 0.00 0.00 64 1017.8
20260503045603 7 329 6.4 8.0 0.00 0.00 0.00 63 1017.6
20260503045404 7 331 6.4 9.7 0.00 0.00 0.00 63 1017.8
20260503045203 7 326 6.4 9.7 0.00 0.00 0.00 63 1017.8
20260503045004 7 326 6.4 9.7 0.00 0.00 0.00 62 1017.8
20260503044803 7 325 6.4 9.7 0.00 0.00 0.00 62 1017.8
20260503044603 7 330 6.4 9.7 0.00 0.00 0.00 62 1018.0
20260503044203 8 333 4.8 8.0 0.00 0.00 0.00 61 1017.8
20260503043803 8 322 4.8 8.0 0.00 0.00 0.00 61 1017.7
20260503043604 8 315 6.4 8.0 0.00 0.00 0.00 61 1017.6
20260503043403 8 317 4.8 8.0 0.00 0.00 0.00 60 1017.7
20260503043203 8 311 4.8 8.0 0.00 0.00 0.00 60 1017.7
20260503043004 8 322 4.8 8.0 0.00 0.00 0.00 60 1017.8
20260503042803 8 323 6.4 11.3 0.00 0.00 0.00 60 1017.9
20260503042604 8 319 6.4 11.3 0.00 0.00 0.00 58 1017.8
20260503042404 8 322 6.4 11.3 0.00 0.00 0.00 58 1018.0
20260503042204 8 318 8.0 11.3 0.00 0.00 0.00 58 1018.0